This is the latest recevied weather packets stored in our database for station/object SP7QPD-1. If no packets are shown the sender has not sent any weather packets the latest 1 day(s).
| Time | Temp. | Humidity | Pressure | Rain* | Wind** | Luminosity | Snow |
|---|---|---|---|---|---|---|---|
| 1778011400 | 15.56° C | 49% | 1003.1 hPa | 0 mm | 25.03 m/s, 0° | - | - |
| 1778010800 | 16.11° C | 48% | 1003.2 hPa | 0 mm | 25.03 m/s, 0° | - | - |
| 1778010200 | 16.67° C | 47% | 1003.2 hPa | 0 mm | 25.03 m/s, 45° | - | - |
| 1778009600 | 16.67° C | 46% | 1003.1 hPa | 0 mm | 25.03 m/s, 0° | - | - |
| 1778009000 | 17.22° C | 46% | 1003.1 hPa | 0 mm | 25.03 m/s, 0° | - | - |
| 1778008400 | 17.78° C | 46% | 1003.1 hPa | 0 mm | 25.03 m/s, 0° | - | - |
| 1778007800 | 17.78° C | 45% | 1003.1 hPa | 0 mm | 25.03 m/s, 0° | - | - |
| 1778007200 | 18.33° C | 44% | 1003 hPa | 0 mm | 25.03 m/s, 0° | - | - |
| 1778006600 | 18.89° C | 43% | 1003.2 hPa | 0 mm | 25.03 m/s, 0° | - | - |
| 1778005999 | 19.44° C | 42% | 1003.1 hPa | 0 mm | 25.03 m/s, 0° | - | - |
| 1778005399 | 20° C | 41% | 1002.9 hPa | 0 mm | 25.03 m/s, 22° | - | - |
| 1778004799 | 20.56° C | 40% | 1002.7 hPa | 0 mm | 25.03 m/s, 22° | - | - |
| 1778004199 | 21.11° C | 38% | 1002.5 hPa | 0 mm | 25.03 m/s, 0° | - | - |
| 1778003599 | 21.67° C | 36% | 1002.5 hPa | 0 mm | 25.03 m/s, 0° | - | - |
| 1778002999 | 22.22° C | 35% | 1002.5 hPa | 0 mm | 25.03 m/s, 0° | - | - |
| 1778002399 | 22.78° C | 33% | 1002.4 hPa | 0 mm | 25.03 m/s, 0° | - | - |
| 1778001799 | 23.33° C | 31% | 1002.4 hPa | 0 mm | 25.03 m/s, 0° | - | - |
| 1778001199 | 23.89° C | 31% | 1002.5 hPa | 0 mm | 25.03 m/s, 0° | - | - |
| 1778000599 | 24.44° C | 29% | 1002.3 hPa | 0 mm | 25.03 m/s, 202° | - | - |
| 1777999999 | 25° C | 28% | 1002.5 hPa | 0 mm | 25.03 m/s, 0° | - | - |
| 1777999398 | 25.56° C | 27% | 1002.5 hPa | 0 mm | 25.03 m/s, 0° | - | - |
| 1777998798 | 25.56° C | 27% | 1002.6 hPa | 0 mm | 25.03 m/s, 0° | - | - |
| 1777998198 | 25.56° C | 28% | 1002.6 hPa | 0 mm | 25.03 m/s, 0° | - | - |
| 1777997598 | 25.56° C | 28% | 1002.8 hPa | 0 mm | 25.03 m/s, 0° | - | - |
| 1777996998 | 26.11° C | 31% | 1002.7 hPa | 0 mm | 25.03 m/s, 0° | - | - |
* Rain latest hour (hover to see other rain measurements)
** Current wind speed in m/s (hover to see current wind gust speed)